This demonstration page uses our WeatherBlox Daily Observations layout. Learn more.

Left ArrowRight Arrow

40.92945, -100.16068

Hourly Observations for May 4, 2015

Temp ( °F °C ) Dew Point ( °F °C ) Humidity (%) Winds ( mph kmh ) Pressure ( in mb ) Visibility ( mi km ) Precip ( " mm )
12:15 am 00:15 Clear 62 16.5 39 3.9 43 43 NE 18 30 29.91 1013 10 16.0934 N/A
12:35 am 00:35 Clear 61 16.1 38 3.5 43 43 NNE 17 28 29.94 1014 10 16.0934 N/A
12:55 am 00:55 Clear 61 16.1 38 3.2 42 42 NNE 17 28 29.94 1014 10 16.0934 N/A
1:15 am 01:15 Clear 61 16 38 3.2 43 43 NNE 17 28 29.94 1014 10 16.0934 N/A
1:35 am 01:35 Clear 60 15.8 38 3.3 43 43 NNE 14 22 29.94 1014 10 16.0934 N/A
1:55 am 01:55 Clear 60 15.5 38 3.5 45 45 NNE 16 26 29.94 1014 10 16.0934 N/A
2:15 am 02:15 Clear 60 15.5 38 3.3 44 44 NNE 20 31 29.94 1014 10 16.0934 N/A
2:35 am 02:35 Clear 59 15 38 3.5 46 46 NNE 16 26 29.97 1015 10 16.0934 N/A
2:55 am 02:55 Clear 59 15 38 3.6 47 47 NE 14 22 29.97 1015 10 16.0934 N/A
3:15 am 03:15 Clear 59 15 38 3.6 47 47 ENE 9 15 30 1016 10 16.0934 N/A
3:35 am 03:35 Partly Cloudy 58 14.6 39 3.7 48 48 NNE 9 15 30 1016 10 16.0934 N/A
3:55 am 03:55 Partly Cloudy 58 14.4 39 4.1 50 50 ESE 3 6 30 1016 10 16.0934 N/A
4:15 am 04:15 Mostly Cloudy 58 14.5 40 4.2 50 50 NNE 13 20 30 1016 10 16.0934 N/A
4:35 am 04:35 Mostly Cloudy 58 14.3 39 4 50 50 NE 8 13 30 1016 10 16.0934 N/A
4:55 am 04:55 Partly Cloudy 57 13.9 39 4.1 52 52 NNE 10 17 30 1016 10 16.0934 N/A
5:15 am 05:15 Clear 57 13.9 39 4 52 52 NNE 13 20 29.97 1015 10 16.0934 N/A
5:35 am 05:35 Clear 57 14 39 3.8 50 50 NNE 15 24 29.97 1015 10 16.0934 N/A
5:55 am 05:55 Clear 57 13.9 38 3.5 50 50 NNE 16 26 29.97 1015 10 16.0934 N/A
6:15 am 06:15 Clear 56 13.5 38 3.2 50 50 NE 17 28 29.97 1015 10 16.0934 N/A
6:35 am 06:35 Sunny 56 13.5 37 3 49 49 NE 13 20 30 1016 10 16.0934 N/A
6:55 am 06:55 Sunny 56 13.4 37 2.6 48 48 NNE 14 22 30.03 1017 10 16.0934 N/A
7:15 am 07:15 Sunny 56 13.3 36 2.4 48 48 NE 9 15 30.03 1017 10 16.0934 N/A
7:35 am 07:35 Partly Cloudy 56 13.1 36 2.3 48 48 ENE 10 17 30.03 1017 10 16.0934 N/A
7:55 am 07:55 Partly Cloudy 56 13.1 36 2.3 48 48 NE 16 26 30.03 1017 10 16.0934 N/A
8:15 am 08:15 Mostly Cloudy 56 13.5 37 2.5 48 48 ENE 15 24 30 1016 10 16.0934 N/A
8:35 am 08:35 Mostly Cloudy 56 13.5 36 2.4 47 47 ENE 15 24 30.03 1017 10 16.0934 N/A
8:55 am 08:55 Mostly Cloudy 57 14 37 2.9 47 47 ENE 15 24 30.03 1017 10 16.0934 N/A
9:15 am 09:15 Cloudy 57 14.1 37 2.7 46 46 ENE 14 22 30.03 1017 10 16.0934 N/A
9:35 am 09:35 Cloudy 58 14.2 37 2.6 46 46 NE 16 26 30.03 1017 10 16.0934 N/A
9:55 am 09:55 Cloudy 58 14.5 36 2.2 44 44 NE 15 24 30.03 1017 10 16.0934 N/A
10:15 am 10:15 Cloudy 58 14.5 36 2 43 43 NE 13 20 30.03 1017 10 16.0934 N/A
10:35 am 10:35 Cloudy 58 14.5 35 1.4 41 41 ENE 16 26 30.06 1018 10 16.0934 N/A
10:55 am 10:55 Cloudy 58 14.5 35 1.7 42 42 ENE 13 20 30.06 1018 10 16.0934 N/A
11:15 am 11:15 Cloudy 58 14.6 35 1.8 42 42 ENE 14 22 30.06 1018 10 16.0934 N/A
11:35 am 11:35 Cloudy 58 14.6 38 3.5 48 48 ENE 17 28 30.06 1018 10 16.0934 N/A
11:55 am 11:55 Cloudy with Light Rain 56 13.5 40 4.4 54 54 ENE 17 28 30.09 1019 10 16.0934 N/A
12:15 pm 12:15 Cloudy 57 13.8 40 4.3 53 53 ENE 16 26 30.09 1019 10 16.0934 N/A
12:35 pm 12:35 Cloudy 58 14.2 39 4 51 51 ENE 16 26 30.09 1019 10 16.0934 N/A
12:55 pm 12:55 Cloudy with Light Rain 55 12.7 43 5.9 64 64 ENE 12 19 30.09 1019 10 16.0934 N/A
1:15 pm 13:15 Cloudy with Heavy Rain 53 11.6 45 7 74 74 NE 9 15 30.09 1019 3 4.82802 0.13 3.302
1:35 pm 13:35 Cloudy with Rain 53 11.4 46 7.6 78 78 NE 15 24 30.09 1019 4 6.43736 0.21 5.334
1:55 pm 13:55 Cloudy with Light Rain 53 11.4 47 8.4 82 82 NE 13 20 30.09 1019 10 16.0934 0.23 5.842
2:15 pm 14:15 Cloudy with Rain 52 11 47 8.4 84 84 NE 15 24 30.15 1021 10 16.0934 N/A
2:35 pm 14:35 Cloudy with Drizzle 51 10.7 48 8.9 89 89 NNE 14 22 30.15 1021 10 16.0934 N/A
2:55 pm 14:55 Cloudy 52 11 48 9.1 88 88 NE 16 26 30.09 1019 10 16.0934 N/A
3:15 pm 15:15 Cloudy 51 10.7 48 9 89 89 NNE 15 24 30.09 1019 10 16.0934 N/A
3:35 pm 15:35 Cloudy with Drizzle 51 10.7 48 9 89 89 NNE 15 24 30.09 1019 7 11.26538 N/A
3:55 pm 15:55 Cloudy 51 10.8 49 9.2 90 90 NNE 14 22 30.09 1019 10 16.0934 N/A
4:15 pm 16:15 Cloudy 52 11.1 49 9.5 90 90 NE 13 20 30.09 1019 10 16.0934 N/A
4:35 pm 16:35 Cloudy with Mist and Fog 52 11.2 49 9.7 91 91 ENE 15 24 30.09 1019 3 4.82802 N/A
4:55 pm 16:55 Cloudy with Light Rain 53 11.5 50 10.1 91 91 ENE 12 19 30.09 1019 3 4.82802 0.01 0.254
5:15 pm 17:15 Cloudy with Light Rain 53 11.5 50 10.1 91 91 NE 13 20 30.06 1018 3 4.82802 0.01 0.254
5:35 pm 17:35 Cloudy with Mist and Fog 53 11.5 50 10.2 92 92 NE 14 22 30.06 1018 4 6.43736 0.01 0.254
5:55 pm 17:55 Cloudy with Mist and Fog 54 12 51 10.8 92 92 NE 14 22 30.06 1018 5 8.0467 0.01 0.254
6:15 pm 18:15 Cloudy 53 11.8 51 10.7 93 93 NE 13 20 30.06 1018 7 11.26538 N/A
6:35 pm 18:35 Cloudy 53 11.7 51 10.5 92 92 ENE 13 20 30.06 1018 10 16.0934 N/A
6:55 pm 18:55 Cloudy 54 12 51 10.6 91 91 ENE 13 20 30.06 1018 7 11.26538 N/A
7:15 pm 19:15 Cloudy 53 11.6 51 10.4 92 92 NE 15 24 30.03 1017 7 11.26538 N/A
7:35 pm 19:35 Cloudy 53 11.5 50 10.1 91 91 NE 15 24 30.03 1017 10 16.0934 N/A
7:55 pm 19:55 Cloudy 53 11.5 50 10 91 91 NE 14 22 30.03 1017 10 16.0934 N/A
8:15 pm 20:15 Cloudy 53 11.5 50 10 91 91 NE 12 19 30.03 1017 7 11.26538 N/A
8:35 pm 20:35 Cloudy 53 11.5 50 10 91 91 NE 15 24 30.03 1017 7 11.26538 N/A
8:55 pm 20:55 Cloudy 53 11.5 50 10.1 91 91 ENE 9 15 30.06 1018 7 11.26538 N/A
9:15 pm 21:15 Cloudy 53 11.5 50 10.2 92 92 E 8 13 30.06 1018 7 11.26538 N/A
9:35 pm 21:35 Cloudy 53 11.5 51 10.5 94 94 ENE 8 13 30.06 1018 7 11.26538 N/A
9:55 pm 21:55 Cloudy with Mist and Fog 53 11.5 51 10.5 94 94 E 9 15 30.09 1019 5 8.0467 N/A
10:15 pm 22:15 Cloudy with Mist and Fog 53 11.5 51 10.5 94 94 ENE 8 13 30.09 1019 3 4.82802 N/A
10:35 pm 22:35 Cloudy with Mist and Fog 53 11.5 51 10.6 94 94 ENE 8 13 30.09 1019 2.5 4.02335 N/A
10:55 pm 22:55 Cloudy with Mist and Fog 53 11.5 51 10.7 95 95 E 8 13 30.09 1019 1.75 2.816345 N/A
11:15 pm 23:15 Cloudy with Mist and Fog 53 11.6 52 10.9 96 96 E 7 11 30.06 1018 1 1.60934 N/A
11:35 pm 23:35 Cloudy with Fog 53 11.7 52 11 96 96 E 5 7 30.06 1018 0.5 0.80467 N/A
11:55 pm 23:55 Cloudy with Fog 54 12 52 11.3 96 96 ESE 5 7 30.09 1019 0.5 0.80467 N/A

Powered by AerisWeather